Location: Peterborough
(44.3091°N, 78.3197°W)
Time: 05:20:21
(UTC-04:00)

A-11 Canister half - Pass Details

Date: 23 March 2023
Orbit: 1513 x 1686 km, 47.2° (Epoch: 04 June)

Event Time Altitude Azimuth Distance (km) Brightness Sun altitude
Rises 21:41:03 0° 205° (SSW) 4,778 11.6 -23.5°
Reaches altitude 10° 21:44:23 10° 198° (SSW) 3,820 11.0 -24.0°
Enters shadow 21:52:09 37° 146° (SE) 2,365 9.5 -25.2°
